Location: ????????
(55.0097°N, 38.5678°E)
Time: 01:22:17
(UTC+00:00)

NOSS 3-1 (C) - Pass Details

Date: 23 December 2025
Orbit: 618 x 1583 km, 63.4° (Epoch: 10 January)

Event Time Altitude Azimuth Distance (km) Brightness Sun altitude
Rises 16:57:52 0° 249° (WSW) 3,067 7.0 -32.2°
Reaches altitude 10° 17:00:03 10° 254° (WSW) 2,234 6.1 -32.5°
Enters shadow 17:03:54 47° 289° (WNW) 1,070 4.0 -33.1°
